EW3182 Weather Reports


Display with metric or nautical units.
time (UTC)temp
F
wind
direction
speed
MPH
gust
MPH
rain 1hr
in
rain 24hr
in
rain mn
in
humidity
%
barometer
mb
20260905014540 91 167 0.0 4.0 0.00 0.00 0.00 49 1009.9
20260905013047 91 213 0.0 1.0 0.00 0.00 0.00 49 1009.7
20260905011617 92 163 0.0 3.0 0.00 0.00 0.00 49 1009.6
20260905010039 92 52 0.0 5.0 0.00 0.00 0.00 48 1009.4
20260905004539 93 243 0.0 4.0 0.00 0.00 0.00 48 1009.2
20260905003039 94 260 0.0 6.0 0.00 0.00 0.00 47 1009.0
20260905001549 94 228 0.0 7.0 0.00 0.00 0.00 45 1008.9
20260905000036 95 98 1.0 5.0 0.00 0.00 0.00 45 1008.9
20260904234538 96 211 1.0 5.0 0.00 0.00 0.00 43 1008.8
20260904233038 96 107 1.0 6.0 0.00 0.00 0.00 42 1008.7
20260904231534 96 260 1.0 6.0 0.00 0.00 0.00 41 1008.7
20260904230034 97 148 0.0 4.0 0.00 0.00 0.00 40 1008.7
20260904224533 97 131 0.0 6.0 0.00 0.00 0.00 41 1008.9
20260904223031 96 212 0.0 2.0 0.00 0.00 0.00 42 1009.1
20260904221530 97 188 0.0 4.0 0.00 0.00 0.00 41 1009.0
20260904220029 97 277 1.0 5.0 0.00 0.00 0.00 40 1009.1
20260904214528 98 283 1.0 4.0 0.00 0.00 0.00 40 1009.2
20260904213025 98 131 1.0 5.0 0.00 0.00 0.00 41 1009.4
20260904211524 97 120 1.0 7.0 0.00 0.00 0.00 42 1009.6
20260904210026 98 101 0.0 4.0 0.00 0.00 0.00 41 1009.7
20260904204524 98 110 1.0 4.0 0.00 0.00 0.00 41 1009.8
20260904203025 98 259 1.0 5.0 0.00 0.00 0.00 41 1010.1
20260904201515 97 256 0.0 6.0 0.00 0.00 0.00 42 1010.4
20260904200015 97 167 1.0 7.0 0.00 0.00 0.00 44 1010.6
20260904194509 96 266 1.0 8.0 0.00 0.00 0.00 45 1010.9
20260904193009 97 123 0.0 7.0 0.00 0.00 0.00 46 1010.9
20260904191505 96 250 2.0 6.0 0.00 0.00 0.00 46 1011.1
20260904190005 96 236 1.0 7.0 0.00 0.00 0.00 47 1011.3
20260904184502 95 260 1.0 5.0 0.00 0.00 0.00 47 1011.5
20260904183113 95 98 2.0 6.0 0.00 0.00 0.00 47 1011.8
20260904181607 94 236 1.0 4.0 0.00 0.00 0.00 47 1012.0
20260904180054 94 63 1.0 5.0 0.00 0.00 0.00 49 1012.2
20260904174554 93 243 2.0 7.0 0.00 0.00 0.00 51 1012.4
20260904173049 93 249 3.0 8.0 0.00 0.00 0.00 50 1012.6
20260904171546 92 172 1.0 8.0 0.00 0.00 0.00 51 1012.8
20260904170042 90 97 0.0 6.0 0.00 0.00 0.00 55 1012.8
20260904164546 89 162 0.0 4.0 0.00 0.00 0.00 56 1013.0
20260904163039 90 230 0.0 4.0 0.00 0.00 0.00 59 1013.1
20260904161536 88 204 0.0 3.0 0.00 0.00 0.00 65 1013.0
20260904160033 86 253 1.0 4.0 0.00 0.00 0.00 66 1013.1
20260904154543 87 264 2.0 6.0 0.00 0.00 0.00 66 1012.9
20260904153029 86 253 1.0 7.0 0.00 0.00 0.00 68 1012.9
20260904151528 86 233 2.0 6.0 0.00 0.00 0.00 68 1012.9
20260904150024 84 252 0.0 5.0 0.00 0.00 0.00 76 1012.9
20260904144520 83 285 0.0 6.0 0.00 0.00 0.00 78 1013.0
20260904143028 82 156 0.0 5.0 0.00 0.00 0.00 79 1013.0
20260904141512 80 240 0.0 3.0 0.00 0.00 0.00 79 1013.0
20260904140027 79 271 0.0 3.0 0.00 0.00 0.00 78 1012.8
20260904134508 79 231 0.0 2.0 0.00 0.00 0.00 78 1012.8
20260904133007 78 289 0.0 1.0 0.00 0.00 0.00 77 1012.7
20260904131505 78 75 0.0 4.0 0.00 0.00 0.00 77 1012.5
20260904130004 78 290 0.0 3.0 0.00 0.00 0.00 77 1012.4
20260904124506 78 204 0.0 3.0 0.00 0.00 0.00 77 1012.3
20260904123059 0 0.0 0.0 0.00 0.00 0.00 1012.1
20260904121555 0 0.0 0.0 0.00 0.00 0.00 1012.0
20260904120052 0 0.0 0.0 0.00 0.00 0.00 1011.9
20260904114546 0 0.0 0.0 0.00 0.00 0.00 1011.9
20260904113044 0 0.0 0.0 0.00 0.00 0.00 1011.8
20260904111536 0 0.0 0.0 0.00 0.00 0.00 1011.7
20260904110032 0 0.0 0.0 0.00 0.00 0.00 1011.6
20260904104542 0 0.0 0.0 0.00 0.00 0.00 1011.5
20260904103025 0 0.0 0.0 0.00 0.00 0.00 1011.5
20260904101518 0 0.0 0.0 0.00 0.00 0.00 1011.4
20260904100027 0 0.0 0.0 0.00 0.00 0.00 1011.3
20260904094510 0 0.0 0.0 0.00 0.00 0.00 1011.2
20260904093005 0 0.0 0.0 0.00 0.00 0.00 1011.3
20260904091602 0 0.0 0.0 0.00 0.00 0.00 1011.3
20260904090105 78 259 0.0 1.0 0.00 0.00 0.00 78 1011.3
20260904084555 78 259 0.0 1.0 0.00 0.00 0.00 79 1011.3
20260904083056 78 122 0.0 2.0 0.00 0.00 0.00 79 1011.1
20260904081552 78 274 0.0 1.0 0.00 0.00 0.00 79 1011.1
20260904080051 78 253 0.0 3.0 0.00 0.00 0.00 79 1011.0
20260904074550 79 289 0.0 1.0 0.00 0.00 0.00 79 1011.1
20260904073049 79 118 0.0 3.0 0.00 0.00 0.00 79 1011.1
20260904071602 79 218 0.0 1.0 0.00 0.00 0.00 79 1011.3
20260904070047 79 158 0.0 3.0 0.00 0.00 0.00 79 1011.3
20260904064545 79 255 0.0 3.0 0.00 0.00 0.00 78 1011.5
20260904063044 79 296 0.0 2.0 0.00 0.00 0.00 78 1011.4
20260904061543 79 301 0.0 5.0 0.00 0.00 0.00 78 1011.6
20260904060042 79 245 1.0 4.0 0.00 0.00 0.00 77 1011.7
20260904054542 79 132 0.0 3.0 0.00 0.00 0.00 76 1011.6
20260904053040 80 281 0.0 4.0 0.00 0.00 0.00 75 1011.4
20260904051537 80 115 0.0 4.0 0.00 0.00 0.00 73 1011.4
20260904050035 80 255 0.0 4.0 0.00 0.00 0.00 72 1011.4
20260904044534 80 271 0.0 4.0 0.00 0.00 0.00 71 1011.4
20260904043032 80 248 0.0 2.0 0.00 0.00 0.00 71 1011.3
20260904041531 80 186 0.0 4.0 0.00 0.00 0.00 71 1011.4
20260904040037 81 276 0.0 4.0 0.00 0.00 0.00 71 1011.3
20260904034534 81 282 0.0 4.0 0.00 0.00 0.00 71 1011.3
20260904033030 81 208 0.0 4.0 0.00 0.00 0.00 71 1011.3
20260904031529 82 262 1.0 4.0 0.00 0.00 0.00 71 1011.2
20260904030029 82 287 1.0 3.0 0.00 0.00 0.00 70 1011.2
20260904024530 82 114 1.0 5.0 0.00 0.00 0.00 69 1011.0
20260904023027 83 246 0.0 3.0 0.00 0.00 0.00 69 1010.8
20260904021540 83 276 0.0 5.0 0.00 0.00 0.00 70 1010.6
20260904020027 84 202 0.0 4.0 0.00 0.00 0.00 71 1010.2